Location: Newark
(58.9986°N, 38.5006°E)
Time: 06:01:00
(UTC+00:00)

N. Korean satellite - Pass Details

Date: 11 December 2019
Orbit: 454 x 507 km, 97.2° (Epoch: 28 January)

Event Time Altitude Azimuth Distance (km) Brightness Sun altitude
Rises 04:30:04 0° 10° (N) 2,577 10.1 -10.9°
Reaches altitude 10° 04:32:17 10° 1° (N) 1,681 9.0 -10.7°
Maximum altitude 04:35:32 32° 297° (WNW) 840 7.2 -10.3°
Drops below altitude 10° 04:38:43 10° 232° (SW) 1,642 9.0 -10.0°
Sets 04:40:52 0° 223° (SW) 2,506 10.0 -9.7°
